Temperature
15 16 16 17 19 21 21 20 20 19 19 18 17 18 20 20 20 19 15 15 15 15 14 15 15 15 15 15 15 15 15 15 14 14 15 15 15 15 15 15 14 14 14 14 14 14 14 14 14
15 16 16 18 20 20 20 20 19 19 18 16 16 17 18 18 16 15 14 15 14 14 14 14 14 14 14 14 14 14 14 14 14 14 14 15 15 14 14 14 14 14 14 14 14 14 14 14 14
15 15 16 19 19 20 20 19 19 17 16 16 17 17 17 16 14 14 14 14 14 14 14 14 14 14 14 14 14 14 14 14 14 14 14 14 14 14 14 14 14 14 14 14 14 14 14 13 13
15 15 17 19 19 19 19 19 18 17 16 16 16 17 15 14 13 14 14 14 13 13 13 13 14 14 14 14 14 14 14 14 14 14 14 14 14 14 14 14 14 14 14 14 14 14 14 14 14
15 17 18 18 18 18 18 17 16 18 17 16 16 17 15 13 13 14 14 14 13 13 13 13 13 13 13 14 14 14 14 14 14 14 14 14 14 14 14 14 13 13 13 13 13 13 13 13 13
15 17 18 18 18 18 17 16 16 17 17 16 16 17 15 13 13 13 13 13 13 13 13 13 13 13 13 13 13 13 13 14 14 14 14 13 13 13 13 13 13 13 13 13 13 13 13 13 13
16 17 18 18 18 17 17 15 16 17 17 16 15 16 15 13 13 13 13 13 13 12 12 12 13 13 13 13 13 13 13 13 13 13 13 13 13 13 13 13 13 13 13 13 13 13 13 13 13
14 17 17 17 17 17 16 15 14 15 16 14 14 16 15 12 12 12 12 12 12 12 12 12 12 12 12 13 13 13 13 13 13 13 13 13 13 13 13 13 13 12 12 12 12 12 12 13 13
13 16 16 16 17 17 15 15 14 13 13 13 12 13 13 12 12 12 12 12 12 12 12 12 12 12 12 12 12 12 12 12 12 12 12 12 12 12 12 12 12 12 12 12 12 12 12 12 12
14 16 16 15 16 16 14 14 14 14 14 13 12 12 12 12 12 11 11 11 11 12 12 12 12 12 12 12 12 12 12 12 12 12 12 12 12 12 12 12 12 12 12 12 12 12 12 12 12
14 15 14 13 13 13 13 13 13 14 15 14 13 12 11 11 11 11 11 11 11 11 11 11 11 11 11 12 11 11 11 11 11 11 11 11 11 11 11 11 11 11 11 11 11 11 11 11 12
13 13 13 13 11 12 13 13 13 13 13 12 12 12 11 11 11 11 11 10 11 11 11 11 11 11 11 11 11 11 11 11 11 11 11 11 11 11 11 11 11 11 11 11 11 11 11 11 11
13 12 11 11 10 11 11 12 12 12 11 11 11 11 11 11 11 10 10 10 10 10 10 10 10 10 10 11 11 11 11 10 10 10 10 11 11 11 11 10 10 11 11 11 11 11 11 11 11
11 11 11 11 11 11 11 11 11 12 10 10 10 10 10 10 10 10 10 10 10 10 10 10 10 10 10 10 10 10 10 10 10 10 10 10 10 10 10 10 10 10 10 10 10 10 10 10 10
10 11 12 11 11 11 11 12 12 11 10 10 10 10 10 10 10 10 10 10 10 10 9 10 10 10 10 10 10 10 10 10 10 10 9 9 9 9 10 10 10 10 10 10 10 10 9 10 10
11 12 13 12 11 11 12 13 13 10 10 10 10 10 9 9 9 9 9 9 9 9 9 9 9 9 9 9 9 9 9 9 9 9 9 9 9 9 9 9 9 9 9 9 9 9 9 9 9
12 12 13 12 11 11 11 13 12 9 10 10 10 10 9 9 9 9 9 9 9 9 9 9 9 9 9 9 9 9 9 9 9 9 9 9 8 8 8 8 8 8 8 8 8 8 8 8 8
12 12 12 12 11 10 11 12 12 10 10 10 10 9 9 8 8 8 8 8 8 8 8 8 9 9 8 8 8 8 8 8 8 8 8 8 8 8 8 8 8 8 8 8 8 8 8 8 8
11 11 11 11 10 10 10 11 11 10 10 10 10 9 8 8 8 7 8 8 8 8 8 8 8 8 8 8 8 8 8 8 8 8 8 8 8 8 8 7 7 7 7 7 7 7 7 7 7
10 10 11 10 9 9 10 10 11 10 10 9 9 9 8 8 7 7 7 7 7 7 8 8 8 8 7 7 7 7 7 7 7 7 7 7 7 7 7 7 7 7 7 7 7 7 7 7 7
9 10 10 10 9 9 9 11 11 10 9 8 8 8 8 7 7 7 7 7 7 7 7 7 7 7 7 7 7 7 7 6 6 6 7 7 6 6 6 6 6 6 6 6 6 6 6 6 6
9 9 8 8 9 9 9 10 11 10 10 9 9 8 7 7 7 6 7 7 7 7 7 7 7 7 7 6 6 6 6 6 6 6 6 6 6 6 6 6 6 6 6 6 6 6 6 6 5
8 7 7 7 8 8 8 9 11 10 10 10 9 8 7 6 6 6 6 6 6 6 6 6 6 6 6 6 6 6 6 6 5 5 5 5 6 6 6 6 5 5 5 5 5 5 5 5 5
7 7 7 7 7 8 8 9 11 11 10 9 9 7 6 5 5 5 6 6 6 6 6 6 6 6 6 6 6 5 5 5 5 5 5 5 5 5 5 5 5 5 5 5 5 5 5 4 4
7 8 8 9 8 9 7 8 10 10 8 8 7 6 5 5 5 5 5 5 5 5 5 5 5 5 5 5 5 5 5 5 4 4 4 4 4 4 4 4 4 4 4 4 4 4 4 4 4
7 8 8 9 10 10 7 8 10 8 7 6 6 5 5 4 4 4 4 5 5 5 5 5 5 5 5 5 5 5 4 4 4 4 4 4 4 4 4 4 4 4 4 4 4 3 3 3 3
7 7 7 7 6 7 9 9 9 8 7 6 5 5 4 4 4 4 4 4 4 4 4 4 4 4 4 4 4 4 4 4 4 3 3 3 3 3 3 3 3 3 3 3 3 3 3 3 3
6 6 6 7 7 9 9 9 10 8 7 6 5 5 4 4 3 3 3 4 4 4 4 4 4 4 4 4 4 4 4 4 3 3 3 3 3 3 3 3 3 3 3 2 2 2 2 2 2
5 5 5 6 6 8 9 10 9 7 7 6 5 4 4 3 3 3 3 3 3 3 3 3 3 3 3 3 3 3 3 3 3 3 3 3 2 2 2 2 2 2 2 2 2 2 2 2 2
5 5 5 6 5 5 7 9 7 6 6 5 5 4 3 3 3 3 3 3 3 3 3 3 3 3 3 3 3 3 3 3 3 2 2 2 2 2 2 2 2 2 2 2 1 1 1 1 1
Wind_Speed
4 3 2 2 4 4 6 4 3 3 3 1 0 2 2 1 1 1 3 2 3 4 6 7 7 7 8 8 9 9 9 9 8 7 7 8 8 9 10 10 9 9 9 9 10 10 11 11 11
2 1 2 2 5 7 5 5 6 4 1 1 1 2 2 0 2 2 2 2 3 5 6 6 7 7 8 8 8 8 8 8 8 8 7 7 7 8 9 9 9 9 9 9 10 10 11 11 10
0 1 2 3 5 7 4 3 3 2 1 2 1 1 1 0 2 2 3 2 3 5 5 6 7 7 8 8 8 8 8 8 7 7 7 7 7 7 8 8 9 9 9 9 9 10 10 10 10
2 2 2 4 7 5 3 2 2 3 2 2 2 1 1 2 2 2 2 3 4 4 4 6 6 7 7 7 7 7 8 8 7 7 7 7 7 7 7 8 8 8 8 8 9 8 9 9 9
1 3 4 6 7 4 3 2 3 4 3 2 3 2 2 1 2 2 2 3 3 4 4 5 5 6 7 7 7 7 7 7 7 6 6 6 6 6 6 7 8 8 8 8 8 8 8 8 8
2 3 6 8 8 5 4 3 4 4 3 3 3 3 2 2 2 2 2 3 3 3 4 4 4 5 6 6 6 6 6 7 7 6 6 6 6 6 6 6 7 7 7 7 7 7 7 8 8
3 4 6 7 7 6 4 3 5 4 5 3 3 3 3 2 2 2 2 3 3 4 3 3 3 4 6 6 6 6 6 6 6 6 6 6 5 5 5 6 6 7 6 6 7 7 6 7 7
2 3 5 6 7 6 3 2 2 4 3 1 3 4 3 2 2 2 3 3 3 3 2 2 2 3 4 5 5 6 6 6 6 6 6 6 5 5 6 6 6 6 6 6 6 6 6 6 6
2 5 7 7 6 4 3 3 2 2 3 3 3 3 2 2 3 3 3 3 3 2 2 1 2 2 3 3 4 5 5 6 6 6 7 5 4 4 4 5 5 5 5 5 5 6 6 6 5
3 6 7 4 4 3 3 4 3 4 5 5 4 2 2 4 4 4 4 4 3 3 1 1 1 1 2 3 3 3 4 4 4 3 4 3 3 3 4 6 6 6 5 5 5 5 5 3 3
3 5 4 3 3 3 4 4 4 6 7 6 5 4 4 5 5 5 4 4 3 3 2 1 0 1 1 2 2 2 3 3 3 3 3 2 3 3 3 3 3 4 3 2 3 3 2 2 2
3 3 4 3 2 3 4 4 5 7 6 4 4 4 5 6 6 5 5 4 3 3 2 1 1 1 1 1 2 2 3 2 2 2 2 2 1 1 1 1 1 1 1 1 1 1 2 2 1
5 3 3 3 3 3 4 6 6 7 6 4 3 4 6 6 5 5 4 4 4 4 3 2 2 2 2 2 1 1 2 2 2 2 2 1 1 1 1 1 1 1 1 1 1 1 1 1 1
2 3 4 3 4 3 5 7 6 7 4 4 5 6 6 6 6 5 5 5 4 3 3 2 2 2 2 2 2 2 1 2 2 2 2 2 1 1 1 1 1 1 1 1 0 0 1 1 1
2 3 4 5 5 3 4 8 8 6 5 5 5 6 6 6 6 6 5 5 5 4 4 3 3 3 3 3 2 2 2 2 2 2 3 3 2 2 1 1 1 1 1 1 1 1 1 1 1
3 4 6 4 4 3 5 10 5 2 4 5 5 5 6 5 6 5 5 5 5 4 4 3 3 3 3 2 3 2 2 3 2 3 3 3 3 2 2 1 1 1 2 2 1 1 1 2 2
4 6 7 4 3 3 6 9 5 2 4 6 6 6 6 5 6 5 4 4 4 4 4 4 3 3 3 3 3 2 2 2 2 3 3 3 3 3 2 2 1 2 2 2 2 2 2 2 2
6 7 7 7 3 5 9 11 9 6 7 7 7 6 6 6 6 5 4 4 3 4 4 4 4 3 3 3 3 2 2 2 2 2 2 3 3 4 3 2 3 2 2 2 2 2 2 2 2
5 7 9 7 4 6 11 13 12 9 8 8 7 7 6 6 5 3 3 3 3 3 4 4 4 3 3 3 3 3 3 2 2 2 3 3 3 4 4 3 3 3 3 3 3 2 2 2 1
7 8 9 7 4 6 9 13 12 9 9 9 8 8 6 5 4 4 3 3 3 4 4 4 4 4 4 4 4 3 3 2 2 2 3 3 4 4 4 4 3 4 3 3 3 3 2 1 2
8 9 8 7 6 5 8 10 8 6 6 7 7 7 6 6 6 4 4 3 4 4 4 4 4 4 5 4 3 3 2 2 2 2 2 3 4 4 4 4 4 3 4 3 4 4 4 3 2
8 5 6 6 5 4 3 7 7 6 6 7 7 6 6 5 5 4 3 3 4 4 4 4 3 4 4 4 5 5 4 4 3 3 2 2 2 3 3 3 3 3 3 3 3 3 3 3 3
4 2 4 6 6 6 5 6 7 5 7 7 6 5 4 4 4 4 3 3 3 3 2 2 2 3 3 4 5 5 4 3 2 3 3 2 1 2 2 3 3 3 3 3 3 3 3 3 3
2 2 1 3 4 6 6 7 7 5 6 5 4 3 2 2 2 2 2 2 2 1 1 1 2 3 3 4 4 5 5 4 4 3 3 2 1 1 2 2 2 2 2 3 3 3 3 3 3
3 3 2 3 4 5 3 6 8 4 3 4 3 2 2 1 1 1 1 1 1 1 1 2 2 2 2 3 4 5 5 5 5 4 4 3 2 2 2 2 2 2 2 3 3 3 3 4 4
5 5 4 4 5 4 4 8 5 2 2 2 2 1 1 1 1 1 1 2 2 2 2 2 2 2 2 2 3 4 4 3 3 4 3 3 3 3 3 3 3 3 3 3 3 3 3 4 5
5 5 2 1 2 5 6 6 6 2 2 2 2 1 1 1 1 1 1 1 1 1 1 2 2 2 1 2 2 3 3 3 3 3 3 2 2 2 3 3 3 3 3 3 4 3 4 5 5
2 4 3 3 4 6 6 7 5 4 4 3 3 2 2 1 1 1 1 1 1 1 1 1 2 1 1 1 2 2 2 3 3 3 3 3 3 3 3 3 3 3 4 4 4 4 5 5 5
4 5 4 3 3 5 6 5 2 4 4 4 3 3 2 2 2 1 1 1 1 0 0 1 1 1 1 1 2 2 2 2 3 3 3 3 3 3 3 3 4 4 4 4 5 5 5 5 5
5 6 6 4 5 5 5 6 1 3 3 3 3 3 3 3 2 2 1 1 1 1 1 1 1 1 2 1 1 2 1 2 2 3 3 3 3 3 4 4 4 4 5 5 5 5 5 5 6
Wind_Direction
335 320 262 226 209 213 222 205 198 170 166 125 187 239 242 254 288 49 69 92 107 139 143 140 134 130 124 119 117 115 112 111 114 117 116 117 116 114 111 107 103 102 102 100 98 97 96 94 93
336 298 227 220 225 216 212 203 199 191 144 135 173 219 212 166 20 53 80 89 121 138 142 140 134 134 130 125 122 119 117 114 114 118 118 120 119 115 115 111 106 101 97 99 100 99 97 93 92
281 291 219 204 221 226 207 177 180 166 178 205 177 245 276 84 67 65 62 113 134 134 140 129 132 135 132 127 123 122 123 123 117 116 119 124 126 122 121 117 113 106 100 99 101 101 100 96 92
216 186 205 221 218 225 235 169 160 176 181 203 217 176 134 30 11 48 79 132 140 138 139 127 128 136 133 130 129 127 124 123 122 116 115 121 126 127 124 121 117 112 108 105 101 102 104 100 97
216 202 200 215 223 218 226 244 211 214 202 202 226 218 196 73 47 75 112 134 142 140 132 129 129 131 132 129 128 127 126 122 118 115 112 114 114 114 121 122 121 120 116 110 105 104 110 106 101
180 209 214 219 215 212 215 216 215 224 223 224 222 215 208 97 85 79 107 124 126 133 127 122 125 133 129 129 129 126 123 121 118 114 108 110 113 111 114 119 122 123 120 116 110 105 108 113 108
208 208 225 225 218 217 208 204 218 226 229 231 232 214 190 156 91 91 111 114 111 113 112 111 127 135 131 131 133 131 124 119 116 116 112 110 112 112 108 112 121 119 119 119 115 110 107 113 112
229 203 213 218 222 223 190 196 232 240 235 235 238 229 212 190 131 126 121 115 111 110 105 102 113 128 141 138 127 125 120 116 111 109 106 107 103 107 110 109 112 116 119 122 118 115 114 109 112
216 220 223 218 220 211 181 208 223 254 215 225 240 270 311 144 158 155 148 141 136 129 117 95 104 108 119 132 124 124 115 105 105 100 93 99 107 105 108 101 102 110 116 119 117 114 115 114 111
209 223 227 223 235 225 208 234 230 221 228 236 234 241 163 161 173 179 185 180 171 168 160 123 106 109 116 120 130 132 134 122 112 106 103 100 95 88 90 92 94 99 103 108 111 117 127 132 118
207 226 216 224 243 238 227 240 235 234 244 244 236 220 197 189 192 195 195 193 186 180 171 181 223 109 117 118 130 127 130 123 120 108 108 107 101 98 96 108 104 100 106 113 119 139 137 114 92
200 227 231 231 230 231 237 236 243 243 257 282 259 222 201 203 205 205 203 201 194 184 187 199 210 186 155 133 134 142 138 130 123 115 119 119 105 109 113 110 109 113 103 97 117 128 125 120 124
215 218 235 246 239 241 241 245 256 254 265 267 240 216 215 215 216 217 216 211 202 197 195 206 210 196 175 154 147 134 140 144 142 137 143 131 134 156 155 134 122 114 102 111 104 135 139 139 138
211 219 235 247 234 231 247 260 250 251 258 243 224 221 223 223 221 220 216 219 217 207 199 190 201 196 176 163 167 159 158 160 161 155 159 160 164 174 168 146 136 127 126 104 108 189 235 220 203
212 230 238 239 241 239 258 255 237 249 239 231 226 223 226 230 228 223 221 220 218 207 198 186 191 189 181 177 183 177 173 177 177 171 167 167 174 189 177 174 172 160 163 159 171 184 253 247 225
208 228 236 219 231 236 240 254 246 247 230 240 238 234 231 230 229 227 221 218 212 202 195 186 186 185 185 181 190 188 181 184 187 187 176 175 176 185 191 188 191 188 184 181 194 214 224 240 238
210 232 242 240 222 243 238 259 263 256 248 253 251 246 240 236 235 232 222 215 208 201 191 182 185 186 189 188 186 182 178 186 193 193 184 183 184 186 193 200 198 205 193 195 209 223 238 246 248
227 238 245 245 240 250 250 262 273 268 259 255 250 246 240 239 236 230 221 211 209 206 197 190 191 189 187 186 188 179 172 182 195 200 195 191 193 195 200 200 196 201 203 207 213 220 240 243 258
242 241 255 263 275 264 259 268 275 267 254 249 243 235 233 236 232 223 217 204 203 204 203 201 194 189 188 194 199 198 202 203 203 209 210 204 204 197 198 197 194 200 207 214 215 218 225 236 248
232 242 257 270 275 267 272 273 273 261 247 244 242 237 232 232 227 220 211 202 208 210 210 212 206 200 203 207 207 212 209 214 212 209 220 215 213 205 198 197 197 201 208 211 211 210 220 235 236
239 244 254 267 287 263 282 269 256 254 243 244 243 240 235 229 232 227 214 210 217 221 219 218 213 210 209 203 189 176 184 198 208 220 225 224 219 210 207 201 199 202 205 209 214 216 219 228 236
247 244 247 255 263 270 270 275 260 251 250 243 240 235 234 230 232 231 225 221 228 229 223 224 218 216 211 199 193 187 196 209 220 215 212 216 216 205 199 199 195 201 210 211 215 220 226 225 227
242 251 240 243 245 265 245 254 263 240 249 245 237 230 231 230 234 237 234 228 235 232 220 224 220 218 208 202 201 201 208 212 205 196 193 198 199 200 194 193 190 201 206 213 213 215 223 230 237
185 178 196 221 232 248 237 235 261 241 243 244 231 231 235 233 236 241 233 215 223 221 208 217 219 222 212 200 203 209 208 204 198 198 198 203 200 201 198 196 189 200 205 212 218 217 220 225 237
199 209 235 224 223 243 203 234 254 258 261 245 238 245 255 240 224 229 220 202 214 218 206 214 219 226 218 204 207 213 214 211 211 210 208 208 207 215 215 202 202 205 209 209 212 215 223 224 229
208 212 222 246 250 263 221 238 256 271 277 235 237 243 231 231 234 227 225 211 212 213 209 214 224 226 221 214 218 215 212 211 214 216 214 215 218 220 214 204 206 210 212 214 217 221 228 229 229
186 201 242 226 263 262 246 258 275 243 237 209 212 214 230 257 255 252 242 231 214 205 212 224 232 228 229 235 226 223 215 210 207 208 208 211 216 215 214 213 214 213 218 224 228 228 230 232 232
243 168 178 202 231 254 255 255 246 225 226 221 229 253 261 270 283 289 278 271 255 228 244 257 251 242 262 259 246 235 220 209 207 204 205 213 222 221 220 227 227 224 224 224 225 232 232 233 234
179 180 192 205 249 252 264 258 209 207 215 221 238 264 273 276 289 301 306 308 304 327 266 247 260 287 290 271 258 236 221 209 211 215 216 219 223 223 225 230 233 233 233 231 230 231 235 236 238
222 203 190 211 227 239 260 266 114 208 228 240 254 267 276 289 291 291 298 308 319 315 294 279 281 291 282 265 253 249 234 221 220 227 227 224 226 227 228 230 234 236 236 234 235 238 238 240 242
Height
1514 1514 1515 1517 1516 1512 1511 1511 1512 1515 1516 1519 1519 1519 1516 1516 1517 1522 1523 1520 1521 1522 1523 1524 1525 1527 1527 1528 1529 1529 1530 1531 1532 1532 1533 1533 1534 1534 1534 1535 1535 1535 1535 1535 1536 1535 1536 1536 1536
1514 1515 1517 1517 1512 1511 1511 1510 1513 1514 1518 1520 1520 1519 1518 1519 1521 1521 1520 1520 1521 1522 1523 1524 1525 1526 1527 1528 1529 1529 1530 1531 1531 1532 1533 1533 1534 1534 1534 1535 1535 1535 1535 1536 1536 1536 1536 1536 1536
1514 1515 1518 1514 1511 1509 1509 1511 1513 1517 1519 1520 1520 1520 1520 1520 1521 1521 1520 1520 1521 1522 1523 1524 1525 1526 1527 1527 1528 1529 1530 1530 1531 1532 1533 1533 1534 1534 1534 1534 1535 1535 1535 1535 1536 1536 1536 1536 1536
1515 1518 1518 1514 1511 1510 1511 1513 1516 1518 1519 1520 1520 1520 1521 1521 1521 1521 1520 1521 1521 1522 1523 1524 1525 1525 1526 1527 1528 1528 1529 1530 1531 1532 1532 1533 1533 1534 1534 1534 1534 1535 1535 1535 1535 1535 1536 1536 1536
1516 1516 1514 1513 1511 1512 1514 1516 1518 1517 1517 1519 1520 1519 1520 1521 1520 1520 1520 1521 1521 1522 1523 1523 1524 1525 1526 1527 1527 1528 1529 1529 1530 1531 1532 1532 1533 1533 1534 1534 1534 1534 1535 1535 1535 1535 1535 1536 1536
1517 1514 1511 1510 1509 1512 1514 1517 1518 1517 1517 1519 1519 1518 1519 1520 1519 1520 1520 1521 1521 1522 1522 1523 1524 1525 1525 1526 1527 1527 1528 1529 1530 1530 1531 1532 1532 1533 1533 1533 1533 1533 1534 1534 1535 1535 1535 1535 1535
1516 1512 1509 1507 1509 1511 1514 1517 1517 1516 1516 1518 1519 1518 1518 1519 1519 1519 1519 1520 1521 1521 1522 1523 1523 1524 1525 1525 1526 1527 1527 1528 1529 1529 1530 1531 1531 1532 1532 1533 1533 1533 1533 1533 1534 1534 1534 1534 1535
1514 1513 1510 1509 1509 1510 1515 1516 1517 1517 1516 1518 1519 1517 1517 1518 1518 1518 1519 1519 1520 1521 1521 1522 1523 1523 1523 1524 1525 1526 1527 1527 1528 1528 1529 1530 1530 1531 1531 1532 1532 1532 1532 1533 1533 1533 1534 1534 1534
1514 1513 1508 1508 1509 1510 1514 1515 1516 1517 1517 1517 1517 1517 1517 1516 1517 1517 1518 1518 1519 1519 1520 1521 1521 1522 1522 1523 1523 1524 1525 1526 1527 1527 1528 1529 1529 1530 1530 1530 1531 1531 1532 1532 1532 1532 1533 1533 1533
1513 1509 1507 1510 1510 1511 1514 1514 1515 1515 1515 1515 1516 1515 1515 1515 1516 1516 1516 1517 1517 1518 1518 1519 1519 1520 1521 1521 1522 1522 1523 1524 1525 1526 1526 1527 1527 1528 1529 1529 1529 1530 1530 1531 1531 1531 1532 1532 1532
1512 1509 1510 1512 1513 1513 1513 1514 1514 1513 1512 1513 1513 1513 1513 1514 1514 1515 1515 1516 1516 1516 1517 1517 1518 1518 1518 1519 1520 1520 1521 1522 1523 1524 1524 1525 1526 1526 1527 1527 1528 1528 1529 1529 1530 1530 1530 1530 1530
1512 1512 1512 1512 1513 1513 1513 1513 1513 1512 1511 1512 1512 1511 1511 1512 1512 1512 1513 1514 1514 1515 1515 1515 1516 1516 1517 1517 1517 1518 1519 1520 1521 1522 1523 1523 1523 1524 1525 1525 1526 1526 1527 1528 1528 1528 1528 1529 1529
1511 1511 1513 1513 1513 1513 1513 1512 1511 1510 1510 1510 1509 1509 1509 1510 1510 1511 1512 1512 1512 1513 1513 1513 1513 1514 1514 1514 1515 1516 1517 1518 1519 1520 1520 1521 1521 1522 1522 1523 1523 1524 1525 1526 1526 1527 1527 1527 1527
1511 1511 1512 1512 1512 1511 1511 1509 1510 1506 1507 1507 1507 1507 1507 1508 1508 1509 1509 1509 1510 1510 1510 1511 1511 1512 1512 1512 1513 1514 1514 1516 1517 1517 1518 1518 1519 1519 1520 1520 1521 1522 1522 1523 1523 1524 1525 1525 1525
1512 1511 1509 1509 1510 1510 1510 1505 1504 1504 1505 1505 1505 1505 1505 1505 1505 1506 1506 1507 1507 1508 1508 1508 1509 1509 1510 1510 1511 1511 1512 1513 1514 1515 1515 1516 1516 1517 1517 1518 1518 1519 1520 1520 1521 1522 1522 1522 1523
1510 1508 1505 1505 1508 1508 1510 1498 1500 1502 1502 1502 1502 1502 1502 1502 1502 1503 1503 1504 1504 1505 1505 1505 1506 1506 1507 1508 1509 1509 1510 1510 1511 1512 1512 1513 1514 1514 1515 1515 1516 1517 1517 1518 1518 1519 1519 1520 1520
1506 1503 1500 1503 1506 1506 1505 1497 1498 1500 1500 1499 1499 1499 1499 1499 1499 1500 1500 1501 1501 1502 1502 1502 1503 1503 1504 1505 1506 1506 1507 1507 1508 1509 1509 1510 1511 1512 1512 1513 1513 1514 1515 1515 1516 1516 1517 1517 1517
1500 1499 1500 1500 1503 1505 1502 1496 1496 1498 1498 1497 1496 1496 1496 1496 1496 1497 1497 1498 1498 1498 1499 1499 1500 1500 1501 1502 1503 1503 1504 1505 1505 1506 1507 1507 1508 1509 1509 1510 1510 1511 1511 1512 1513 1513 1514 1514 1515
1501 1501 1498 1499 1503 1504 1498 1495 1493 1494 1494 1493 1493 1493 1493 1493 1494 1494 1494 1494 1495 1495 1495 1496 1496 1497 1498 1498 1499 1500 1500 1501 1502 1503 1503 1504 1505 1505 1506 1507 1507 1508 1508 1509 1510 1510 1511 1511 1512
1503 1501 1498 1499 1503 1502 1497 1492 1489 1489 1489 1489 1489 1489 1490 1491 1491 1491 1491 1491 1491 1492 1492 1493 1493 1494 1495 1495 1496 1497 1497 1498 1498 1500 1500 1501 1501 1502 1503 1503 1504 1505 1506 1506 1507 1507 1508 1508 1508
1501 1499 1498 1499 1501 1500 1498 1485 1484 1484 1486 1486 1486 1486 1487 1487 1488 1488 1488 1488 1488 1489 1489 1489 1490 1491 1491 1492 1493 1494 1494 1495 1496 1496 1497 1497 1498 1499 1499 1500 1500 1501 1502 1503 1503 1504 1504 1505 1505
1497 1500 1501 1502 1500 1494 1497 1485 1477 1480 1481 1481 1482 1483 1483 1484 1484 1484 1485 1485 1486 1486 1486 1486 1487 1488 1488 1489 1489 1490 1490 1491 1492 1493 1493 1494 1494 1495 1495 1496 1497 1498 1499 1499 1500 1501 1501 1502 1502
1498 1502 1502 1502 1499 1498 1495 1492 1473 1477 1476 1475 1478 1479 1480 1480 1481 1481 1482 1482 1483 1483 1483 1483 1484 1485 1485 1486 1486 1487 1488 1488 1489 1489 1490 1491 1491 1492 1492 1493 1493 1494 1495 1496 1496 1497 1498 1498 1498
1502 1502 1502 1501 1499 1495 1489 1488 1470 1469 1471 1472 1475 1477 1477 1478 1478 1479 1479 1480 1480 1480 1481 1481 1482 1482 1482 1483 1483 1484 1484 1485 1485 1486 1486 1487 1488 1488 1488 1489 1490 1491 1491 1492 1493 1493 1494 1494 1495
1500 1497 1493 1490 1489 1481 1490 1488 1471 1469 1472 1473 1474 1475 1476 1476 1476 1476 1476 1476 1477 1477 1478 1478 1479 1479 1479 1479 1480 1481 1481 1482 1482 1483 1483 1484 1484 1485 1485 1485 1486 1487 1488 1488 1489 1490 1490 1491 1491
1496 1493 1490 1485 1478 1474 1488 1481 1468 1472 1473 1474 1475 1475 1475 1475 1474 1474 1474 1474 1475 1475 1475 1476 1476 1476 1476 1477 1477 1478 1479 1479 1479 1480 1480 1481 1481 1482 1482 1482 1483 1483 1484 1485 1485 1486 1486 1487 1488
1493 1492 1494 1494 1496 1489 1473 1472 1470 1471 1472 1473 1474 1474 1473 1473 1473 1473 1472 1472 1472 1472 1473 1473 1474 1474 1474 1474 1475 1475 1475 1476 1476 1477 1477 1478 1478 1479 1479 1479 1480 1480 1481 1481 1482 1482 1483 1483 1483
1494 1494 1495 1492 1486 1475 1468 1468 1462 1467 1468 1470 1472 1472 1472 1472 1472 1472 1471 1471 1471 1470 1471 1472 1472 1472 1472 1472 1472 1472 1472 1473 1473 1473 1474 1474 1475 1475 1476 1476 1476 1477 1477 1478 1478 1478 1479 1479 1479
1495 1495 1493 1490 1489 1479 1468 1461 1462 1465 1467 1469 1470 1471 1471 1471 1470 1470 1470 1469 1469 1469 1470 1470 1470 1469 1469 1469 1469 1469 1469 1470 1470 1470 1470 1471 1471 1472 1472 1473 1473 1474 1474 1474 1474 1475 1475 1475 1475
1490 1489 1490 1488 1489 1488 1475 1466 1465 1467 1468 1469 1470 1470 1470 1470 1469 1469 1468 1468 1468 1468 1468 1468 1467 1467 1467 1467 1467 1466 1466 1467 1467 1467 1468 1468 1468 1468 1469 1470 1470 1470 1470 1471 1471 1471 1471 1471 1471